DW8069 Weather Reports


time (UTC)temp
C
wind
direction
speed
KPH
gust
KPH
rain 1hr
cm
rain 24hr
cm
rain mn
cm
humidity
%
barometer
mb
20260906110019 19 58 0.0 3.2 0.00 0.43 0.00 95 1013.4
20260906104518 18 58 1.6 0.0 0.00 0.00 0.00 95 1013.3
20260906103017 18 58 0.0 1.6 0.00 0.43 0.00 94 1013.4
20260906101515 18 58 0.0 1.6 0.00 0.43 0.00 94 1013.5
20260906100014 18 58 0.0 1.6 0.00 0.43 0.00 94 1013.4
20260906094512 18 58 0.0 3.2 0.00 0.43 0.00 94 1013.3
20260906093022 18 58 0.0 1.6 0.00 0.43 0.00 92 1013.2
20260906091509 18 58 1.6 1.6 0.00 0.43 0.00 92 1013.1
20260906090009 18 58 0.0 1.6 0.00 0.43 0.00 92 1013.3
20260906084509 18 58 0.0 1.6 0.00 0.43 0.00 92 1013.3
20260906083010 18 58 0.0 1.6 0.00 0.43 0.00 92 1013.2
20260906081508 18 58 0.0 1.6 0.00 0.43 0.00 91 1013.2
20260906080006 18 58 0.0 1.6 0.00 0.43 0.00 91 1013.2
20260906074506 18 58 0.0 1.6 0.00 0.43 0.00 90 1013.3
20260906073008 18 58 0.0 1.6 0.00 0.43 0.00 90 1013.4
20260906071505 18 58 0.0 1.6 0.00 0.43 0.00 89 1013.3
20260906070003 18 58 0.0 1.6 0.00 0.43 0.00 89 1013.2
20260906064501 18 58 0.0 1.6 0.00 0.43 0.00 89 1013.2
20260906063058 18 58 0.0 0.0 0.00 0.00 0.00 89 1013.8
20260906061625 18 58 0.0 1.6 0.00 0.43 0.00 89 1013.9
20260906060054 18 58 0.0 1.6 0.00 0.43 0.00 89 1013.8
20260906054554 18 58 0.0 1.6 0.00 0.43 0.00 90 1014.1
20260906053056 18 58 0.0 1.6 0.00 0.43 0.00 89 1014.1
20260906051551 18 58 0.0 1.6 0.00 0.43 0.00 90 1014.3
20260906050107 18 58 0.0 0.0 0.00 0.43 0.00 90 1014.3
20260906044549 18 58 0.0 1.6 0.00 0.43 0.00 90 1014.3
20260906043104 18 58 0.0 1.6 0.00 0.43 0.00 90 1014.3
20260906041546 18 58 0.0 0.0 0.00 0.43 0.00 90 1014.2
20260906040059 18 58 0.0 1.6 0.00 0.43 0.00 90 1014.4
20260906034541 18 58 0.0 1.6 0.00 0.43 0.43 90 1014.4
20260906033040 18 58 0.0 1.6 0.00 0.43 0.43 90 1014.5
20260906031540 18 58 0.0 1.6 0.00 0.43 0.43 90 1014.6
20260906030039 19 58 0.0 1.6 0.00 0.43 0.43 90 1014.5
20260906024539 19 58 0.0 1.6 0.00 0.43 0.43 89 1014.4
20260906023054 18 58 0.0 0.0 0.00 0.43 0.43 89 1014.4
20260906021539 18 58 0.0 1.6 0.00 0.43 0.43 89 1014.4
20260906020037 18 58 1.6 3.2 0.00 0.43 0.43 89 1014.3
20260906014550 19 71 0.0 1.6 0.00 0.43 0.43 87 1014.1
20260906013037 20 81 0.0 1.6 0.00 0.43 0.43 85 1014.2
20260906011549 20 165 0.0 3.2 0.00 0.43 0.43 85 1014.0
20260906010037 20 110 0.0 1.6 0.00 0.43 0.43 85 1013.9
20260906004539 20 110 0.0 1.6 0.00 0.43 0.43 84 1013.6
20260906003035 20 110 0.0 4.8 0.00 0.43 0.43 83 1013.5
20260906001534 20 98 0.0 1.6 0.00 0.43 0.43 83 1013.4
20260906000035 20 119 0.0 1.6 0.00 0.43 0.43 81 1013.2
20260905234539 20 120 0.0 1.6 0.00 0.43 0.43 83 1013.1
20260905233032 20 120 0.0 1.6 0.00 0.43 0.43 82 1013.2
20260905231532 20 121 0.0 3.2 0.00 0.43 0.43 78 1013.1
20260905230031 21 159 0.0 3.2 0.00 0.43 0.43 79 1013.0
20260905224535 21 124 0.0 3.2 0.00 0.43 0.43 80 1013.0
20260905223035 21 160 0.0 4.8 0.00 0.43 0.43 79 1013.1
20260905221530 21 158 0.0 4.8 0.00 0.43 0.43 80 1013.1
20260905220029 22 153 0.0 4.8 0.00 0.43 0.43 79 1013.2
20260905214527 22 163 0.0 4.8 0.00 0.43 0.43 80 1013.1
20260905213029 22 124 0.0 3.2 0.00 0.43 0.43 80 1013.0
20260905211528 22 106 0.0 3.2 0.00 0.43 0.43 78 1013.1
20260905210027 22 115 0.0 3.2 0.00 0.43 0.43 80 1013.2
20260905204527 22 129 0.0 1.6 0.00 0.43 0.43 81 1013.1
20260905203026 21 110 0.0 4.8 0.00 0.43 0.43 81 1013.0
20260905201525 21 110 0.0 4.8 0.00 0.43 0.43 81 1012.9
20260905200034 21 242 0.0 1.6 0.00 0.43 0.43 82 1012.9
20260905194526 21 43 0.0 3.2 0.00 0.43 0.43 86 1013.1
20260905193024 20 30 1.6 3.2 0.00 0.43 0.43 92 1013.0
20260905191525 19 26 1.6 3.2 0.00 0.43 0.43 93 1013.1
20260905190039 19 50 0.0 1.6 0.00 0.43 0.43 93 1013.4
20260905184518 18 50 0.0 1.6 0.00 0.43 0.43 94 1013.4
20260905183018 17 50 0.0 1.6 0.03 0.43 0.43 94 1013.5
20260905181518 17 50 0.0 1.6 0.03 0.43 0.43 93 1014.0
20260905180019 17 50 0.0 1.6 0.03 0.43 0.43 93 1014.2
20260905174511 17 31 1.6 3.2 0.15 0.43 0.43 92 1014.8
20260905173011 17 76 0.0 1.6 0.41 0.41 0.41 92 1015.2
20260905171510 17 76 0.0 1.6 0.41 0.41 0.41 90 1015.7
20260905170006 18 76 0.0 6.4 0.38 0.38 0.38 89 1016.0
20260905164502 20 163 3.2 24.1 0.25 0.25 0.25 83 1016.2
20260905163100 23 110 0.0 4.8 0.00 0.00 0.00 79 1015.5
20260905161600 23 151 0.0 6.4 0.00 0.00 0.00 77 1015.3
20260905160119 25 175 1.6 9.7 0.00 0.00 0.00 74 1015.0
20260905154600 25 150 0.0 6.4 0.00 0.00 0.00 76 1015.3
20260905153106 24 89 1.6 6.4 0.00 0.00 0.00 77 1015.4
20260905151558 25 52 0.0 3.2 0.00 0.00 0.00 76 1015.2
20260905150055 24 10 0.0 3.2 0.00 0.00 0.00 79 1015.1
20260905144554 24 53 0.0 3.2 0.00 0.00 0.00 79 1014.9
20260905143054 24 305 0.0 3.2 0.00 0.00 0.00 79 1015.0
20260905141556 23 254 0.0 1.6 0.00 0.00 0.00 79 1015.3
20260905134549 23 106 0.0 1.6 0.00 0.00 0.00 81 1015.1
20260905133045 22 352 0.0 1.6 0.00 0.00 0.00 84 1015.2
20260905131557 22 130 0.0 4.8 0.00 0.00 0.00 85 1015.5
20260905130046 21 41 0.0 0.0 0.00 0.00 0.00 86 1015.5
20260905124539 21 48 0.0 0.0 0.00 0.00 0.00 86 1015.5
20260905123038 21 46 0.0 0.0 0.00 0.00 0.00 87 1015.4
20260905121540 21 109 0.0 0.0 0.00 0.00 0.00 85 1015.3
20260905120041 21 159 0.0 0.0 0.00 0.00 0.00 86 1015.2
20260905114537 20 57 0.0 0.0 0.00 0.00 0.00 87 1015.0
20260905113036 20 57 0.0 0.0 0.00 0.00 0.00 88 1014.8
20260905111557 20 57 0.0 0.0 0.00 0.00 0.00 87 1014.7